Flag for Japan Weather past 2 weeks in Utsunomiya, Japan

Now
43 °F

Quite cool.


Feels Like: 40 °F
Forecast: 41 / 53 °F
Wind: 6 mph from North

Location: Mito


UV Index: 5 (Moderate)

Visibility: N/A


Pressure: 30.27 "Hg

Humidity: 66%

Dew point: 33 °F

Location of UtsunomiyaLocation

Historic Weather in Utsunomiya

°F

Utsunomiya temperature yesterday

Maximum temperature yesterday: 56 °F (at 10:00 AM)
Minimum temperature yesterday: 43 °F (at 11:00 PM)
Average temperature yesterday: 47 °F

Past Weeks' High & Low Weather Summary

 TemperatureHumidityPressure
High75 °F (Apr 10, 2:00 PM)94% (Apr 19, 1:00 AM)30.27 "Hg (Apr 19, 1:00 AM)
Low35 °F (Apr 7, 6:00 AM)15% (Apr 12, 3:00 PM)29.64 "Hg (Apr 10, 3:00 PM)
Average52 °F55%29.96 "Hg
* Reported Apr 5 5:00 AM — Apr 20 5:00 AM, Utsunomiya, Weather by CustomWeather, © 2014

Note: Actual official high and low records may vary slightly from our data, if they occured in-between our weather recording intervals... More about our weather records

Advertising

Historic Weather Conditions — Data for Previous 24 hours

 ConditionsComfort  
Time TempWeatherWind HumidityBarometerVisibility
5:00 AM
Apr 20
41 °FQuite cool.3 mph70%30.27 "HgN/A
4:00 AM41 °FQuite cool.3 mph72%30.27 "HgN/A
3:00 AM41 °FOvercast.3 mph72%30.27 "Hg12 mi
2:00 AM41 °FQuite cool.7 mph72%30.26 "HgN/A
1:00 AM41 °FQuite cool.8 mph70%30.25 "HgN/A
12:00 AM42 °FQuite cool.12 mph67%30.27 "HgN/A
11:00 PM
Apr 19
43 °FQuite cool.9 mph63%30.27 "HgN/A
10:00 PM43 °FQuite cool.13 mph61%30.25 "HgN/A
9:00 PM44 °FOvercast.17 mph63%30.23 "Hg12 mi
8:00 PM45 °FQuite cool.14 mph65%30.21 "HgN/A
7:00 PM45 °FCool.14 mph65%30.18 "HgN/A
6:00 PM46 °FCool.14 mph67%30.16 "HgN/A
5:00 PM47 °FCool.20 mph64%30.13 "HgN/A
4:00 PM49 °FCool.16 mph61%30.12 "HgN/A
3:00 PM49 °FPartly sunny.18 mph58%30.10 "Hg12 mi
2:00 PM51 °FCool.20 mph58%30.09 "HgN/A
1:00 PM51 °FCool.20 mph58%30.09 "HgN/A
12:00 PM52 °FCool.20 mph60%30.08 "HgN/A
11:00 AM53 °FCool.17 mph53%30.09 "HgN/A
10:00 AM56 °FRefreshingly cool.12 mph49%30.09 "HgN/A
9:00 AM55 °FPartly sunny.7 mph43%30.07 "Hg12 mi
8:00 AM52 °FCool.6 mph59%30.07 "HgN/A
7:00 AM47 °FCool.3 mph83%30.05 "HgN/A
Weather by CustomWeather, © 2014

See weather overview